, AK

(GMT )
Portage Glacier

Weather History for PATO - January, 2013

Change the Weather History Date:

Wednesday, January 2, 2013

  Actual Average Record
Temperature  
Mean Temperature 36 °F -  
Max Temperature 37 °F - - ()
Min Temperature 35 °F - - ()
Degree Days  
Heating Degree Days 29    
Moisture  
Dew Point 32 °F    
Average Humidity 81    
Maximum Humidity 87    
Minimum Humidity 76    
Precipitation  
Precipitation 0.66 in - - ()
Sea Level Pressure  
Sea Level Pressure 29.51 in    
Wind  
Wind Speed 17 mph (East)    
Max Wind Speed 24 mph    
Max Gust Speed 52 mph    
Visibility 6 miles    
Events Rain , Snow    
T = Trace of Precipitation, MM = Missing Value Source: NWS Daily Summary

Daily Weather History Graph

Daily Weather History Graph

Search for Another Location

Airport or City:

Trip Planner

Search our weather history database for the weather conditions in past years. The results will help you decide how hot, cold, wet, or windy it might be!

Date:

Astronomy

Jan. 02, 2013 Rise Set
Actual Time 10:04 AM AKST 3:55 PM AKST
Civil Twilight 9:05 AM AKST 4:54 PM AKST
Nautical Twilight 8:07 AM AKST 5:52 PM AKST
Astronomical Twilight 7:14 AM AKST 6:44 PM AKST
Moon 11:27 PM AKST (1/2) 11:10 AM AKST (1/2)
Length of Visible Light 7h 49m
Length of Day
5h 51m
Waning Gibbous, 74% of the Moon is Illuminated
Jan 2
Waning Gibbous
Jan 4
Last Quarter
Jan 11
New
Jan 18
First Quarter
Jan 26
Full

Hourly Weather History & Observations

Time (AKST) Temp. Windchill Dew Point Humidity Pressure Visibility Wind Dir Wind Speed Gust Speed Precip Events Conditions
12:46 AM 37.0 °F 27.4 °F 30.9 °F 79% 29.37 in 2.5 mi East 17.3 mph 35.7 mph 0.04 in Snow Light Snow
12:53 AM 37.0 °F 28.5 °F 32.0 °F 82% 29.37 in 3.0 mi ESE 13.8 mph 34.5 mph 0.05 in Snow Light Snow
1:16 AM 37.0 °F 28.5 °F 32.0 °F 82% 29.37 in 4.0 mi ESE 13.8 mph 33.4 mph 0.03 in Snow Light Snow
1:53 AM 37.9 °F 28.5 °F 30.9 °F 76% 29.39 in 8.0 mi ESE 17.3 mph 29.9 mph 0.04 in Rain Light Rain
2:06 AM 37.0 °F 27.0 °F 30.9 °F 79% 29.39 in 9.0 mi East 18.4 mph 35.7 mph 0.00 in Rain Light Rain
3:22 AM 37.0 °F 26.4 °F 32.0 °F 82% 29.41 in 5.0 mi ESE 20.7 mph 33.4 mph 0.00 in Rain Light Rain
3:53 AM 37.0 °F 29.3 °F 32.0 °F 82% 29.42 in 4.0 mi ENE 11.5 mph 27.6 mph 0.02 in Snow Light Snow
4:53 AM 37.9 °F 28.9 °F 32.0 °F 79% 29.42 in 9.0 mi East 16.1 mph 31.1 mph 0.02 in Rain Light Rain
5:34 AM 37.0 °F 27.4 °F 32.0 °F 82% 29.44 in 8.0 mi East 17.3 mph 32.2 mph 0.01 in Rain Light Rain
5:53 AM 37.0 °F 27.7 °F 30.9 °F 79% 29.44 in 8.0 mi East 16.1 mph 34.5 mph 0.02 in Rain Light Rain
6:03 AM 37.0 °F 27.4 °F 30.9 °F 79% 29.44 in 8.0 mi East 17.3 mph 32.2 mph 0.00 in Rain Light Rain
6:10 AM 37.0 °F 28.5 °F 32.0 °F 82% 29.44 in 6.0 mi ESE 13.8 mph 29.9 mph 0.00 in Rain Light Rain
6:53 AM 37.9 °F 28.5 °F 32.0 °F 79% 29.46 in 6.0 mi East 17.3 mph 33.4 mph 0.05 in Rain Light Rain
7:40 AM 37.9 °F 27.9 °F 32.0 °F 79% 29.47 in 8.0 mi East 19.6 mph 31.1 mph 0.02 in Rain Light Rain
7:53 AM 37.0 °F 26.7 °F 32.0 °F 82% 29.48 in 9.0 mi East 19.6 mph 28.8 mph 0.02 in Rain Light Rain
8:17 AM 37.0 °F 31.0 °F 32.0 °F 82% 29.48 in 5.0 mi East 8.1 mph 25.3 mph 0.01 in Rain Light Rain
8:40 AM 37.9 °F 29.2 °F 32.0 °F 79% 29.49 in 10.0 mi East 15.0 mph 25.3 mph 0.01 in Rain Light Rain
8:53 AM 37.0 °F 29.3 °F 32.0 °F 82% 29.49 in 10.0 mi East 11.5 mph 25.3 mph 0.01 in   Overcast
9:42 AM 37.9 °F 29.2 °F 32.0 °F 79% 29.50 in 7.0 mi East 15.0 mph 25.3 mph 0.01 in Rain Light Rain
9:53 AM 37.9 °F 28.2 °F 32.0 °F 79% 29.50 in 5.0 mi East 18.4 mph 29.9 mph 0.01 in Rain Light Rain
10:37 AM 37.0 °F 28.5 °F 32.0 °F 82% 29.52 in 4.0 mi East 13.8 mph 27.6 mph 0.03 in Rain Light Rain
10:53 AM 37.9 °F 29.2 °F 32.0 °F 79% 29.52 in 4.0 mi ESE 15.0 mph 27.6 mph 0.03 in Rain Light Rain
11:53 AM 37.9 °F 30.0 °F 30.9 °F 76% 29.53 in 6.0 mi East 12.7 mph 31.1 mph 0.00 in Rain Light Rain
12:53 PM 37.9 °F 28.2 °F 30.9 °F 76% 29.53 in 9.0 mi East 18.4 mph 29.9 mph 0.01 in Rain Light Rain
1:53 PM 37.9 °F 29.6 °F 32.0 °F 79% 29.53 in 5.0 mi ESE 13.8 mph 28.8 mph 0.00 in Rain Light Rain
2:09 PM 37.0 °F 26.7 °F 32.0 °F 82% 29.52 in 4.0 mi ESE 19.6 mph 28.8 mph 0.01 in Rain Light Rain
2:25 PM 37.9 °F 26.8 °F 32.0 °F 79% 29.52 in 6.0 mi East 24.2 mph 33.4 mph 0.01 in Rain Light Rain
2:53 PM 37.9 °F 27.6 °F 32.0 °F 79% 29.54 in 6.0 mi East 20.7 mph 33.4 mph 0.02 in Rain Light Rain
3:51 PM 37.4 °F 28.9 °F 32.0 °F 81% 29.54 in 3.0 mi East 13.8 mph 26.5 mph 0.01 in Rain Light Rain
3:53 PM 37.0 °F 28.5 °F 32.0 °F 82% 29.54 in 3.0 mi ESE 13.8 mph 25.3 mph 0.01 in Rain Light Rain
4:23 PM 37.0 °F 28.1 °F 32.0 °F 82% 29.54 in 2.5 mi ESE 15.0 mph 40.3 mph 0.03 in Rain Heavy Rain
4:33 PM 37.0 °F 26.7 °F 33.1 °F 86% 29.54 in 4.0 mi ENE 19.6 mph 33.4 mph 0.04 in Rain Rain
4:53 PM 37.9 °F 29.6 °F 32.0 °F 79% 29.54 in 4.0 mi ESE 13.8 mph 35.7 mph 0.06 in Rain Rain
5:53 PM 37.9 °F 28.5 °F 30.9 °F 76% 29.55 in 9.0 mi East 17.3 mph 33.4 mph 0.02 in Rain Light Rain
6:30 PM 37.0 °F 27.0 °F 30.9 °F 79% 29.56 in 7.0 mi East 18.4 mph 34.5 mph 0.01 in Rain Light Rain
6:44 PM 37.0 °F 26.7 °F 32.0 °F 82% 29.57 in 4.0 mi East 19.6 mph 36.8 mph 0.02 in Rain Light Rain
6:53 PM 37.0 °F 27.0 °F 32.0 °F 82% 29.57 in 4.0 mi East 18.4 mph 40.3 mph 0.02 in Rain Light Rain
7:22 PM 37.0 °F 26.2 °F 30.9 °F 79% 29.56 in 9.0 mi East 21.9 mph 35.7 mph 0.00 in Rain Light Rain
7:31 PM 37.0 °F 27.0 °F 30.9 °F 79% 29.55 in 3.0 mi East 18.4 mph 34.5 mph 0.01 in Snow Light Snow
7:49 PM 35.6 °F 25.2 °F 30.2 °F 81% 29.56 in 2.5 mi ENE 18.4 mph 34.5 mph 0.04 in Snow Light Snow
7:53 PM 36.0 °F 26.3 °F 32.0 °F 86% 29.57 in 2.5 mi East 16.1 mph 33.4 mph 0.05 in Snow Light Snow
8:20 PM 37.0 °F 26.4 °F 30.9 °F 79% 29.57 in 5.0 mi East 20.7 mph 40.3 mph 0.03 in Rain Light Rain
8:53 PM 37.0 °F 27.4 °F 30.9 °F 79% 29.58 in 10.0 mi East 17.3 mph 36.8 mph 0.04 in Rain Light Rain
9:48 PM 35.6 °F 24.8 °F 32.0 °F 87% 29.60 in 2.5 mi East 19.6 mph 31.1 mph 0.05 in Snow Light Snow
9:53 PM 36.0 °F 26.7 °F 32.0 °F 86% 29.60 in 2.0 mi East 15.0 mph 31.1 mph 0.06 in Snow Light Snow
10:01 PM 37.0 °F 28.5 °F 32.0 °F 82% 29.61 in 3.0 mi ESE 13.8 mph 38.0 mph 0.01 in Snow Light Snow
10:53 PM 37.0 °F 26.4 °F 30.9 °F 79% 29.61 in 5.0 mi ESE 20.7 mph 36.8 mph 0.03 in Snow Light Snow
11:12 PM 37.0 °F 25.9 °F 32.0 °F 82% 29.60 in 2.5 mi ESE 23.0 mph 44.9 mph 0.03 in Snow Light Snow
11:19 PM 37.0 °F 26.7 °F 32.0 °F 82% 29.61 in 3.0 mi East 19.6 mph 51.8 mph 0.04 in Snow Light Snow
11:42 PM 37.0 °F 26.2 °F 32.0 °F 82% 29.60 in 4.0 mi ESE 21.9 mph 36.8 mph 0.07 in Rain Light Rain
11:53 PM 37.0 °F 25.6 °F 32.0 °F 82% 29.61 in 5.0 mi ESE 24.2 mph 38.0 mph 0.07 in Rain Light Rain